Time,TemperatureF,DewpointF,PressureIn,WindDirection,WindDirectionDegrees,WindSpeedMPH,WindSpeedGustMPH,Humidity,HourlyPrecipIn,Conditions,Clouds,dailyrainin,SolarRadiationWatts/m^2,SoftwareType,DateUTC
2013-01-16 00:02:00,36.5,35.0,30.20,North,5,0.0,2.0,94,0.07,,,0.00,0,weatherlink.com 1.10,2013-01-16 05:02:00,
2013-01-16 00:17:00,36.3,35.0,30.18,North,5,0.0,2.0,94,0.08,,,0.02,0,weatherlink.com 1.10,2013-01-16 05:17:00,
2013-01-16 00:32:00,36.0,35.0,30.18,North,11,2.0,5.0,95,0.08,,,0.04,0,weatherlink.com 1.10,2013-01-16 05:32:00,
2013-01-16 00:47:00,35.9,35.0,30.16,North,11,0.0,2.0,95,0.09,,,0.07,0,weatherlink.com 1.10,2013-01-16 05:47:00,
2013-01-16 01:17:00,35.9,35.0,30.16,North,360,0.0,3.0,96,0.08,,,0.10,0,weatherlink.com 1.10,2013-01-16 06:17:00,
2013-01-16 01:32:00,35.9,35.0,30.15,North,360,1.0,3.0,96,0.08,,,0.12,0,weatherlink.com 1.10,2013-01-16 06:32:00,
2013-01-16 01:47:00,35.9,35.0,30.14,North,355,0.0,2.0,96,0.07,,,0.14,0,weatherlink.com 1.10,2013-01-16 06:47:00,
2013-01-16 02:02:00,35.9,35.0,30.14,NNE,13,0.0,4.0,96,0.06,,,0.14,0,weatherlink.com 1.10,2013-01-16 07:02:00,
2013-01-16 02:17:00,35.9,35.0,30.13,NE,37,3.0,5.0,96,0.06,,,0.16,0,weatherlink.com 1.10,2013-01-16 07:17:00,
2013-01-16 02:32:00,35.9,35.0,30.13,North,5,0.0,6.0,96,0.06,,,0.18,0,weatherlink.com 1.10,2013-01-16 07:32:00,
2013-01-16 02:47:00,35.9,35.0,30.12,NNE,16,0.0,5.0,96,0.08,,,0.22,0,weatherlink.com 1.10,2013-01-16 07:47:00,
2013-01-16 03:02:00,35.7,35.0,30.12,NNW,337,0.0,5.0,96,0.10,,,0.24,0,weatherlink.com 1.10,2013-01-16 08:02:00,
2013-01-16 03:17:00,35.7,35.0,30.09,ENE,72,0.0,3.0,96,0.12,,,0.28,0,weatherlink.com 1.10,2013-01-16 08:17:00,
2013-01-16 03:32:00,35.7,35.0,30.08,North,355,0.0,3.0,97,0.13,,,0.32,0,weatherlink.com 1.10,2013-01-16 08:32:00,
2013-01-16 03:47:00,35.9,35.0,30.09,North,11,0.0,7.0,97,0.15,,,0.37,0,weatherlink.com 1.10,2013-01-16 08:47:00,
2013-01-16 04:02:00,35.9,35.0,30.09,NNE,13,1.0,5.0,97,0.18,,,0.42,0,weatherlink.com 1.10,2013-01-16 09:02:00,
2013-01-16 04:17:00,35.9,35.0,30.07,NNE,22,0.0,4.0,97,0.18,,,0.47,0,weatherlink.com 1.10,2013-01-16 09:17:00,
2013-01-16 04:32:00,35.9,35.0,30.07,North,360,0.0,5.0,97,0.17,,,0.49,0,weatherlink.com 1.10,2013-01-16 09:32:00,
2013-01-16 04:47:00,35.9,35.0,30.09,NNE,32,0.0,5.0,97,0.13,,,0.51,0,weatherlink.com 1.10,2013-01-16 09:47:00,
2013-01-16 05:02:00,35.7,35.0,30.09,North,9,0.0,4.0,97,0.11,,,0.54,0,weatherlink.com 1.10,2013-01-16 10:02:00,
2013-01-16 05:17:00,35.5,35.0,30.07,NNW,347,0.0,6.0,97,0.08,,,0.55,0,weatherlink.com 1.10,2013-01-16 10:17:00,
2013-01-16 05:32:00,35.3,35.0,30.06,ENE,73,2.0,3.0,97,0.07,,,0.56,0,weatherlink.com 1.10,2013-01-16 10:32:00,
2013-01-16 05:47:00,35.4,35.0,30.06,NNE,17,0.0,5.0,97,0.05,,,0.56,0,weatherlink.com 1.10,2013-01-16 10:47:00,
2013-01-16 06:03:00,35.5,35.0,30.05,NE,44,0.0,3.0,97,0.03,,,0.57,0,weatherlink.com 1.10,2013-01-16 11:03:00,
2013-01-16 06:18:00,35.6,35.0,30.04,NNW,341,0.0,6.0,97,0.03,,,0.58,0,weatherlink.com 1.10,2013-01-16 11:18:00,
2013-01-16 06:33:00,35.8,35.0,30.04,NNW,341,0.0,1.0,97,0.02,,,0.58,0,weatherlink.com 1.10,2013-01-16 11:33:00,
2013-01-16 06:48:00,36.1,35.0,30.03,ENE,71,0.0,1.0,97,0.02,,,0.58,0,weatherlink.com 1.10,2013-01-16 11:48:00,
2013-01-16 07:03:00,36.4,36.0,30.04,NW,319,0.0,2.0,98,0.02,,,0.59,0,weatherlink.com 1.10,2013-01-16 12:03:00,
2013-01-16 07:18:00,36.7,36.0,30.03,North,360,0.0,2.0,97,0.02,,,0.60,0,weatherlink.com 1.10,2013-01-16 12:18:00,
2013-01-16 07:33:00,37.0,36.0,30.03,North,360,0.0,2.0,97,0.02,,,0.60,0,weatherlink.com 1.10,2013-01-16 12:33:00,
2013-01-16 07:48:00,37.1,37.0,30.02,North,5,0.0,2.0,98,0.03,,,0.61,9,weatherlink.com 1.10,2013-01-16 12:48:00,
2013-01-16 08:03:00,37.4,37.0,30.02,North,360,0.0,4.0,98,0.02,,,0.61,12,weatherlink.com 1.10,2013-01-16 13:03:00,
2013-01-16 08:18:00,37.6,37.0,30.02,NW,306,0.0,3.0,98,0.01,,,0.61,9,weatherlink.com 1.10,2013-01-16 13:18:00,
2013-01-16 08:33:00,37.8,37.0,30.00,NW,306,0.0,2.0,98,0.01,,,0.61,18,weatherlink.com 1.10,2013-01-16 13:33:00,
2013-01-16 08:48:00,38.2,38.0,30.00,NW,306,0.0,1.0,98,0.00,,,0.61,16,weatherlink.com 1.10,2013-01-16 13:48:00,
2013-01-16 09:03:00,38.6,38.0,29.98,NW,306,0.0,1.0,98,0.00,,,0.61,18,weatherlink.com 1.10,2013-01-16 14:03:00,
2013-01-16 09:18:00,39.0,39.0,29.97,NW,306,0.0,1.0,98,0.00,,,0.61,16,weatherlink.com 1.10,2013-01-16 14:18:00,
2013-01-16 09:33:00,39.6,39.0,29.95,South,188,0.0,3.0,98,0.01,,,0.62,33,weatherlink.com 1.10,2013-01-16 14:33:00,
2013-01-16 09:48:00,40.0,40.0,29.96,SSE,161,0.0,3.0,98,0.01,,,0.62,23,weatherlink.com 1.10,2013-01-16 14:48:00,
2013-01-16 10:03:00,40.4,40.0,29.96,South,186,0.0,4.0,98,0.02,,,0.63,42,weatherlink.com 1.10,2013-01-16 15:03:00,
2013-01-16 10:18:00,40.7,40.0,29.97,South,186,0.0,1.0,98,0.03,,,0.64,25,weatherlink.com 1.10,2013-01-16 15:18:00,
2013-01-16 10:33:00,40.9,40.0,29.96,South,186,0.0,0.0,98,0.03,,,0.65,40,weatherlink.com 1.10,2013-01-16 15:33:00,
2013-01-16 10:48:00,41.2,41.0,29.97,South,186,0.0,2.0,98,0.04,,,0.66,40,weatherlink.com 1.10,2013-01-16 15:48:00,
2013-01-16 11:03:00,41.4,41.0,29.97,South,186,0.0,1.0,98,0.03,,,0.66,42,weatherlink.com 1.10,2013-01-16 16:03:00,
2013-01-16 11:18:00,41.5,41.0,29.96,South,186,0.0,2.0,98,0.02,,,0.66,44,weatherlink.com 1.10,2013-01-16 16:18:00,
2013-01-16 11:33:00,41.6,41.0,29.94,South,186,0.0,2.0,98,0.01,,,0.66,69,weatherlink.com 1.10,2013-01-16 16:33:00,
2013-01-16 11:48:00,41.7,41.0,29.91,South,186,0.0,2.0,98,0.01,,,0.67,120,weatherlink.com 1.10,2013-01-16 16:48:00,
2013-01-16 12:03:00,41.7,41.0,29.91,South,186,0.0,1.0,98,0.01,,,0.67,93,weatherlink.com 1.10,2013-01-16 17:03:00,
2013-01-16 12:18:00,41.6,41.0,29.92,NW,308,3.0,6.0,98,0.01,,,0.67,65,weatherlink.com 1.10,2013-01-16 17:18:00,
2013-01-16 12:33:00,40.5,40.0,29.91,NW,319,4.0,7.0,97,0.01,,,0.67,46,weatherlink.com 1.10,2013-01-16 17:33:00,
2013-01-16 12:48:00,40.0,39.0,29.90,WNW,296,1.0,5.0,97,0.00,,,0.67,37,weatherlink.com 1.10,2013-01-16 17:48:00,
2013-01-16 13:03:00,39.8,39.0,29.88,WNW,296,0.0,3.0,98,0.00,,,0.67,40,weatherlink.com 1.10,2013-01-16 18:03:00,
2013-01-16 13:18:00,39.9,39.0,29.86,SSE,160,0.0,2.0,98,0.00,,,0.67,47,weatherlink.com 1.10,2013-01-16 18:18:00,
2013-01-16 13:33:00,40.0,40.0,29.82,South,175,2.0,3.0,98,0.00,,,0.67,37,weatherlink.com 1.10,2013-01-16 18:33:00,
2013-01-16 13:48:00,40.3,40.0,29.80,South,175,1.0,3.0,98,0.00,,,0.67,35,weatherlink.com 1.10,2013-01-16 18:48:00,
2013-01-16 14:03:00,40.9,40.0,29.79,SSE,166,1.0,6.0,98,0.00,,,0.67,39,weatherlink.com 1.10,2013-01-16 19:03:00,
2013-01-16 14:19:00,41.8,41.0,29.84,WNW,292,6.0,7.0,98,0.00,,,0.67,21,weatherlink.com 1.10,2013-01-16 19:19:00,
2013-01-16 14:34:00,40.9,40.0,29.87,West,268,4.0,15.0,98,0.00,,,0.67,16,weatherlink.com 1.10,2013-01-16 19:34:00,
2013-01-16 14:49:00,39.6,39.0,29.88,NNE,15,4.0,13.0,97,0.00,,,0.67,18,weatherlink.com 1.10,2013-01-16 19:49:00,
2013-01-16 15:04:00,39.0,38.0,29.90,NW,315,0.0,11.0,97,0.00,,,0.67,18,weatherlink.com 1.10,2013-01-16 20:04:00,
2013-01-16 15:19:00,38.3,38.0,29.86,NW,304,0.0,7.0,98,0.01,,,0.68,16,weatherlink.com 1.10,2013-01-16 20:19:00,
2013-01-16 15:34:00,37.7,37.0,29.92,ESE,107,2.0,9.0,98,0.01,,,0.68,12,weatherlink.com 1.10,2013-01-16 20:34:00,
2013-01-16 15:49:00,37.3,37.0,29.93,WNW,290,7.0,10.0,97,0.01,,,0.68,5,weatherlink.com 1.10,2013-01-16 20:49:00,
2013-01-16 16:04:00,36.6,36.0,29.91,West,280,1.0,9.0,97,0.01,,,0.68,5,weatherlink.com 1.10,2013-01-16 21:04:00,
2013-01-16 16:19:00,36.4,36.0,29.90,SSE,159,0.0,5.0,97,0.00,,,0.68,14,weatherlink.com 1.10,2013-01-16 21:19:00,
2013-01-16 16:34:00,36.5,36.0,29.92,South,180,1.0,4.0,98,0.00,,,0.68,5,weatherlink.com 1.10,2013-01-16 21:34:00,
2013-01-16 16:49:00,36.6,36.0,29.92,South,184,0.0,4.0,98,0.00,,,0.68,0,weatherlink.com 1.10,2013-01-16 21:49:00,
2013-01-16 17:04:00,36.6,36.0,29.92,WNW,284,0.0,4.0,98,0.00,,,0.68,0,weatherlink.com 1.10,2013-01-16 22:04:00,
2013-01-16 17:19:00,36.6,36.0,29.92,WNW,284,0.0,3.0,98,0.00,,,0.68,0,weatherlink.com 1.10,2013-01-16 22:19:00,
2013-01-16 17:34:00,36.7,36.0,29.92,WNW,284,0.0,4.0,98,0.00,,,0.68,0,weatherlink.com 1.10,2013-01-16 22:34:00,
2013-01-16 17:49:00,36.8,36.0,29.93,WNW,288,3.0,6.0,98,0.00,,,0.68,0,weatherlink.com 1.10,2013-01-16 22:49:00,
2013-01-16 18:04:00,36.9,36.0,29.93,WNW,284,0.0,7.0,98,0.00,,,0.68,0,weatherlink.com 1.10,2013-01-16 23:04:00,
2013-01-16 18:19:00,36.9,36.0,29.93,NW,310,4.0,9.0,98,0.00,,,0.68,0,weatherlink.com 1.10,2013-01-16 23:19:00,
2013-01-16 18:34:00,36.8,36.0,29.93,WNW,288,2.0,7.0,97,0.00,,,0.68,0,weatherlink.com 1.10,2013-01-16 23:34:00,
2013-01-16 18:49:00,36.9,36.0,29.93,WNW,282,0.0,6.0,97,0.00,,,0.68,0,weatherlink.com 1.10,2013-01-16 23:49:00,
2013-01-16 19:04:00,36.9,36.0,29.93,West,273,2.0,7.0,98,0.00,,,0.68,0,weatherlink.com 1.10,2013-01-17 00:04:00,
2013-01-16 19:23:00,37.1,37.0,29.93,SW,231,0.0,4.0,98,0.00,,,0.68,0,weatherlink.com 1.10,2013-01-17 00:23:00,
2013-01-16 19:34:00,37.3,37.0,29.92,South,171,0.0,4.0,98,0.00,,,0.68,0,weatherlink.com 1.10,2013-01-17 00:34:00,
2013-01-16 19:49:00,37.4,37.0,29.94,WSW,252,0.0,4.0,98,0.00,,,0.68,0,weatherlink.com 1.10,2013-01-17 00:49:00,
2013-01-16 20:04:00,37.4,37.0,29.93,NNW,329,0.0,5.0,98,0.00,,,0.68,0,weatherlink.com 1.10,2013-01-17 01:04:00,
2013-01-16 20:19:00,37.5,37.0,29.93,WNW,285,0.0,4.0,98,0.00,,,0.68,0,weatherlink.com 1.10,2013-01-17 01:19:00,
2013-01-16 20:34:00,37.5,37.0,29.93,WNW,290,1.0,5.0,98,0.00,,,0.68,0,weatherlink.com 1.10,2013-01-17 01:34:00,
2013-01-16 20:49:00,37.6,37.0,29.93,West,259,1.0,8.0,98,0.00,,,0.68,0,weatherlink.com 1.10,2013-01-17 01:49:00,
2013-01-16 21:04:00,37.7,37.0,29.95,West,275,1.0,8.0,98,0.00,,,0.68,0,weatherlink.com 1.10,2013-01-17 02:04:00,
2013-01-16 21:19:00,37.7,37.0,29.95,West,278,3.0,7.0,97,0.00,,,0.68,0,weatherlink.com 1.10,2013-01-17 02:19:00,
2013-01-16 21:34:00,37.8,37.0,29.95,West,265,3.0,9.0,97,0.00,,,0.68,0,weatherlink.com 1.10,2013-01-17 02:34:00,
2013-01-16 21:49:00,37.9,37.0,29.94,WNW,285,1.0,7.0,97,0.00,,,0.68,0,weatherlink.com 1.10,2013-01-17 02:49:00,
2013-01-16 22:04:00,38.0,37.0,29.93,SW,226,1.0,8.0,97,0.00,,,0.68,0,weatherlink.com 1.10,2013-01-17 03:04:00,
2013-01-16 22:19:00,37.9,37.0,29.92,SSW,204,0.0,6.0,96,0.00,,,0.68,0,weatherlink.com 1.10,2013-01-17 03:19:00,
2013-01-16 22:34:00,38.0,37.0,29.93,WNW,288,2.0,6.0,96,0.00,,,0.68,0,weatherlink.com 1.10,2013-01-17 03:34:00,
2013-01-16 22:49:00,38.0,37.0,29.93,West,271,0.0,5.0,96,0.00,,,0.68,0,weatherlink.com 1.10,2013-01-17 03:49:00,
2013-01-16 23:04:00,38.0,37.0,29.94,West,259,0.0,7.0,96,0.00,,,0.68,0,weatherlink.com 1.10,2013-01-17 04:04:00,
2013-01-16 23:19:00,38.0,37.0,29.95,WSW,252,8.0,8.0,96,0.00,,,0.68,0,weatherlink.com 1.10,2013-01-17 04:19:00,
2013-01-16 23:34:00,38.0,37.0,29.94,WNW,298,0.0,8.0,96,0.00,,,0.68,0,weatherlink.com 1.10,2013-01-17 04:34:00,
2013-01-16 23:49:00,38.0,37.0,29.93,West,275,2.0,6.0,96,0.00,,,0.68,0,weatherlink.com 1.10,2013-01-17 04:49:00,